Weather in Agriya

Russia / Krasnodar Krai     44°12′15″N   38°51′57″E
temp.,
°C
wind,
m/s
gust,
m/s
humid.,
%
clouds,
%
prec.,
mm/h
press.,
hPa
HPBL,
m
24 july, sat
sat2400:00+22nne56702 0.0 1010178
03:00+21nne676536 0.0 1010186
06:00+21ne666519 0.0 1010158
09:00+25ne57570 0.0 1010508
12:00+28nne33510 0.0 1010438
15:00+29w03519 0.0 1009592
18:00+26e44640 0.0 1010285
21:00+25nne58640 0.0 1011234
25 july, sun
sun2500:00+23nne56670 0.0 1011154
03:00+22ne45710 0.1 1012165
06:00+21ne56770 0.1 1012191
09:00+25ene46570 0.1 1012676
12:00+26s44630 0.0 1013532
15:00+27ssw326486 0.0 1013274
18:00+28nw35642 0.0 1012202
21:00+27ne612610 0.0 1012440
26 july, mon
mon2600:00+25ene57630 0.0 1012263
03:00+23ne55690 0.0 1013150
06:00+21ne44792 0.5 1013125
09:00+23ne338078 3.4 1014206
12:00+26wsw11717 0.5 1014299
15:00+27wsw65700 0.5 1013580
18:00+27wsw567768 0.0 1012317
21:00+26ene347720 0.0 1012139
27 july, tue
tue2700:00+25e558157 0.1 1013389
03:00+25ese3481100 0.2 1013601
06:00+23ene3487100 3.6 1014232
09:00+23ne3384100 3.7 1014247
12:00+26n236476 0.5 1014543
15:00+28wnw346136 0.9 1013461
18:00+28ene610620 0.0 1014865
21:00+25ne915580 0.0 1015910
28 july, wed
wed2800:00+24ne714570 0.0 1014677
03:00+22ne814660 0.0 1014529
06:00+22ne816650 0.0 1014711
09:00+26ne916500 0.0 10141207
12:00+30ne913390 0.0 1013608
15:00+31ne812380 0.0 1012545
18:00+29ne813430 0.0 1012545
21:00+27ene816460 0.0 1013627